www.pogodaiklimat.ru

Погода и климат >> Архив погоды >> Италия >> Венеция аэропорт


ПОГОДА в Венеция аэропорту

  • Прогноз погоды в Венеция аэропорту
  • Монитор погоды в Венеция аэропорту

АРХИВ ПОГОДЫ в Венеция аэропорту

Время (UTC), дата Ветер
(напр.,м/с)
 
Видим.   Явления Облачность Т
(С)
Тd
(С)
f
(%)
Тe
(С)
Тes
(С)
Комфортность P
(гПа)
Po
(гПа)
Тmin
(С)
Tmax
(С)
R
(мм)
R24
(мм)
S
(см)
21 19.03 СВ 2 н/о н/о +5.5 +0.6 71 +3 +3 1027.0 1026.2
00 20.03 СВ 3 н/о н/о +5.1 +1.2 76 +2 +2 1028.2 1027.4
03 20.03 В 3 н/о н/о +3.5 +0.2 79 -0 -0 1028.7 1027.9
06 20.03 В 6 н/о н/о +3.6 -0.8 73 -2 -2 1030.1 1029.3 +2.7 1
09 20.03 В 9 н/о н/о +8.5 -2.0 48 +4 +4 1031.6 1030.9
12 20.03 В 7 н/о н/о +10.1 -3.0 40 +7 +7 1031.2 1030.5
15 20.03 ЮВ 6 н/о н/о +10.0 -1.8 44 +7 +7 1030.1 1029.4
18 20.03 В 6 н/о н/о +7.3 -0.5 58 +4 +4 1030.8 1030.0 +10.8
21 20.03 В 4 н/о н/о +7.2 -0.4 58 +4 +4 1032.1 1031.3
00 21.03 В 6 н/о н/о +5.6 -2.6 56 +1 +1 1032.8 1032.0
03 21.03 В 3 н/о н/о +3.0 -3.7 61 -1 -1 1032.2 1031.4
06 21.03 СВ 2 н/о н/о +2.2 -2.8 69 -1 -1 1033.0 1032.2 +1.5 504
09 21.03 В 7 н/о н/о +9.0 -3.4 41 +5 +5 1033.4 1032.7
12 21.03 ЮВ 5 н/о н/о +11.3 +0.6 48 +9 +9 1032.5 1031.8
15 21.03 ЮВ 2 н/о н/о +12.6 -0.8 40 +12 +12 1030.6 1029.9
18 21.03 З 1 н/о н/о +7.7 -2.7 48 +7 +7 1030.3 1029.5 +13.0
21 21.03 СВ 2 н/о н/о +5.8 +1.7 75 +4 +4 1031.5 1030.7
00 22.03 СВ 1 н/о н/о +5.6 +1.8 77 +5 +5 1031.4 1030.6
03 22.03 СВ 2 н/о н/о +4.6 +0.1 73 +2 +2 1030.4 1029.6
06 22.03 СВ 2 н/о н/о +3.4 -0.7 74 +1 +1 1030.6 1029.8 +2.8 403
09 22.03 СВ 2 н/о н/о +10.8 +2.3 56 +10 +10 1031.2 1030.5
12 22.03 Ю 2 н/о н/о +15.0 -4.0 27 +15 +15 1030.1 1029.4
15 22.03 ЮЗ 2 н/о н/о +14.8 -1.9 32 +15 +15 1027.9 1027.2
18 22.03 З 1 н/о н/о +10.7 -2.1 41 +11 +11 1027.3 1026.6 +15.6
21 22.03 С 1 н/о н/о +7.2 +1.2 66 +8 +8 1027.3 1026.6
00 23.03 С 2 н/о н/о +6.5 +0.5 65 +5 +5 1026.8 1026.0
03 23.03 С 2 н/о н/о +6.3 +1.4 71 +4 +4 1025.8 1025.0
06 23.03 С 3 н/о н/о +7.3 +0.9 64 +5 +5 1025.8 1025.1 +5.3 205
09 23.03 СВ 3 н/о н/о +14.9 +2.0 42 +15 +15 1026.0 1025.3
12 23.03 Ю 2 н/о н/о +17.9 +0.9 32 +18 +18 1025.1 1024.4
15 23.03 ЮЗ 2 н/о н/о +17.5 +1.4 34 +18 +18 1023.6 1022.9
18 23.03 З 2 н/о н/о +12.7 +4.3 57 +12 +12 1023.0 1022.3 +19.5
21 23.03 З 2 н/о н/о +11.7 +6.6 71 +11 +11 1023.9 1023.2
00 24.03 З 1 н/о н/о +6.6 +3.9 83 +6 +6 1023.7 1023.0
03 24.03 СВ 1 н/о н/о +5.6 +3.1 84 +4 +4 1023.1 1022.3
06 24.03 С 2 н/о н/о +7.7 +5.3 85 +6 +6 1022.9 1022.2 +5.1 203
09 24.03 В 1 н/о н/о +16.2 +6.3 52 +17 +17 1022.4 1021.7
12 24.03 ЮЗ 3 н/о н/о +19.0 +2.7 34 +19 +19 1021.0 1020.3
15 24.03 Ю 4 н/о н/о +15.9 +6.3 53 +15 +15 1018.1 1017.4
18 24.03 Ю 3 н/о н/о +11.7 +7.0 73 +10 +10 1017.2 1016.5 +20.6
21 24.03 ЮЗ 3 н/о н/о +10.9 +7.7 81 +9 +9 1017.2 1016.5
00 25.03 В 2 н/о н/о +8.2 +6.6 90 +6 +6 1016.1 1015.4
03 25.03 ЮВ 2 н/о н/о +8.7 +7.3 91 +7 +7 1014.4 1013.7
06 25.03 В 2 н/о н/о +6.1 +4.7 91 +4 +4 1013.7 1013.0 +5.1 1
09 25.03 В 3 н/о н/о +12.2 +9.7 85 +11 +11 1013.1 1012.4
12 25.03 ЮВ 3 н/о н/о +9.7 +8.3 91 +8 +8 1010.9 1010.2
15 25.03 ЮВ 1 н/о н/о +9.7 +8.3 91 +9 +9 1007.7 1007.0
18 25.03 ЮВ 2 н/о н/о +9.4 +8.0 91 +8 +8 1006.7 1006.0 +12.9
21 25.03 В 14 н/о н/о +6.2 +4.7 90 -1 -1 1012.7 1012.0
00 26.03 В 12 н/о н/о +2.8 +1.5 91 -5 -5 1018.3 1017.5 25
03 26.03 В 7 н/о н/о +6.5 +1.6 71 +2 +2 1019.4 1018.7
06 26.03 С 2 н/о н/о +4.4 +2.1 85 +2 +2 1020.9 1020.1 +2.1 28 103
09 26.03 В 5 н/о н/о +9.0 +1.8 61 +6 +6 1021.6 1020.9
12 26.03 ЮВ 5 н/о н/о +10.4 +1.7 55 +8 +8 1021.6 1020.9
15 26.03 ЮВ 4 н/о н/о +10.9 +2.9 58 +9 +9 1020.9 1020.2
18 26.03 С 1 н/о н/о +7.2 +0.8 64 +7 +7 1021.8 1021.1 +11.3

 

Местоположение метеостанции Венеция аэропорт (Италия): широта 45.43 долгота 12.38 высота над уровнем моря 6 м.

В архиве по умолчанию представлена погода в Венеция аэропорту за последнюю неделю. Архивные данные за месяц целиком и за предыдущие месяцы, начиная с января 2011 года, Вы можете получить, выбрав интересующий диапазон дат из раскрывающегося списка и нажав кнопку "Ввод!".


*Определитесь, кто Вы:
робот инопланетянин человек

Внимание! Время в таблицах - всемирное. Для получения местного времени необходимо прибавить поправку, которая равна 1 ч.

Смотрите также архив погоды в соседних городах и на ближайших метеорологических станциях:

Погода в Венеции (Италия) (9 км)
Погода в Тревизо (Италия) (29 км)
Погода в Тревизо аэропорту (Италия) (35 км)
Погода в Конкордия-Саджиттарии (Италия) (51 км)
Погода в Авиано (Италия) (69 км)
Погода на Базе ВВС Авиано (Италия) (69 км)
Погода на Базе ВВС Риволто (Италия) (79 км)
Погода в Ферраре (Италия) (89 км)
Погода в Портороже (Словения) (93 км)
Погода в Ронки-деи-Леджонари (Италия) (96 км)

Пояснения к столбцам:

Ветер - указаны скорость ветра в м/с - средняя за 10 мин, порывы в срок и между сроками (в фигурных скобках) и направление, откуда дует ветер: С - северный, СВ - северо-восточный, В - восточный, ЮВ - юго-восточный, Ю - южный, ЮЗ - юго-западный, З - западный, СЗ - северо-западный.
Видимость - горизонтальная дальность видимости в метрах или километрах. При видимости от 1 до 10 км при отсутствии осадков обычно наблюдается дымка, при ухудшении видимости до 1 км и менее - туман. В сухую погоду видимость может ухудшаться дымом, пылью или мглою.
Явления - указаны атмосферные явления, наблюдавшиеся в срок или в последний час перед сроком; фигурными скобками обозначены явления, наблюдавшиеся между сроками (за 1-3 часа до срока); квадратными скобками обозначены град или гололедные отложения с указанием их диаметра в мм.
Облачность - указаны через наклонную черту общая и нижняя облачность в баллах и высота нижней границы облаков в метрах; квадратными скобками обозначены формы облаков: Ci - перистые, Cs - перисто-слоистые, Cc - перисто-кучевые, Ac - высококучевые, As - высокослоистые, Sc - слоисто-кучевые, Ns - слоисто-дождевые, Cu - кучевые, Cb - кучево-дождевые. Подробнее классификацию облаков см. в Атласе облаков (PDF).
T - Температура воздуха - температура, измеренная на высоте 2 м над землей.
Td - Температура точки росы - температура, при понижении до которой содержащийся в воздухе водяной пар достигнет насыщения.
f - Относительная влажность воздуха - влажноcть воздуха, измеренная на высоте 2 м над землей.
Te - Эффективная температура - температура, которую ощущает одетый по сезону человек в тени. Характеристика душности погоды. При расчете учитывается влияние влажности воздуха и скорости ветра на теплоощущения человека.
Tes - Эффективная температура на солнце - температура, которую ощущает человек, с поправкой на солнечный нагрев. Характеристика знойности погоды. Зависит от высоты солнца над горизонтом, облачности и скорости ветра. Ночью, в пасмурную погоду, а также при ветре 12 м/с и более поправка равна нулю.
P - Атмосферное давление - приведенное к уровню моря атмосферное давление.
Po - Атмосферное давление - измеренное на уровне метеостанции атмосферное давление.
Tmin - Минимальная температура - минимум температуры воздуха на высоте 2 м над землей.
Tmax - Максимальная температура - максимум температуры воздуха на высоте 2 м над землей.
R - Количество осадков - Количество выпавших осадков за период времени, мм. При наведении курсора мыши на число - период времени, за который выпало указанное количество осадков.
R24 - Количество осадков - Количество выпавших осадков за 24 часа, мм.
S - Снежный покров - Высота снежного покрова, см. При наведении курсора мыши на число - состояние снежного покрова и степень покрытия местности в баллах.